Location: Gellin
(53.4498°N, 14.3207°E)
Time: 23:33:45
(UTC+00:00)

Meteor 1-5 Rocket - Pass Details

Date: 03 March 2021
Orbit: 790 x 914 km, 81.2° (Epoch: 12 April)

Event Time Altitude Azimuth Distance (km) Brightness Sun altitude
Rises 18:32:18 0° 185° (S) 3,296 7.2 -16.7°
Reaches altitude 10° 18:34:39 10° 184° (S) 2,381 6.5 -17.1°
Maximum altitude 18:40:00 75° 100° (E) 853 4.0 -17.9°
Drops below altitude 10° 18:45:34 10° 16° (NNE) 2,471 6.6 -18.7°
Sets 18:48:02 0° 15° (NNE) 3,430 7.4 -19.0°
